PST,Max TemperatureF,Mean TemperatureF,Min TemperatureF,Max Dew PointF,MeanDew PointF,Min DewpointF,Max Humidity, Mean Humidity, Min Humidity, Max Sea Level PressureIn, Mean Sea Level PressureIn, Min Sea Level PressureIn, Max VisibilityMiles, Mean VisibilityMiles, Min VisibilityMiles, Max Wind SpeedMPH, Mean Wind SpeedMPH, Max Gust SpeedMPH,PrecipitationIn, CloudCover, Events, WindDirDegrees
2012-2-1,62,54,45,49,45,40,86,73,60,30.29,30.25,30.22,10,10,10,10,3,26,0.00,2,,234
2012-2-2,67,55,42,43,40,36,83,60,37,30.22,30.08,29.96,10,10,10,8,3,22,0.00,0,,296
2012-2-3,69,53,36,37,34,30,76,53,30,30.06,30.03,29.98,10,10,10,14,4,33,0.00,0,,285
2012-2-4,72,57,42,37,32,24,70,44,17,30.11,30.07,30.04,10,10,10,8,3,9,0.00,0,,289
2012-2-5,73,58,43,36,33,29,65,43,20,30.10,30.05,29.99,10,10,10,30,4,31,0.00,0,,339
2012-2-6,65,55,45,47,41,35,72,54,36,29.99,29.88,29.79,10,10,10,13,4,23,0.04,2,Rain,283
2012-2-7,63,57,51,49,44,36,77,57,36,30.11,29.91,29.77,10,10,9,24,7,35,0.10,7,Rain,60
2012-2-8,73,59,45,49,45,41,82,63,44,30.25,30.19,30.12,10,10,8,9,4,15,0.00,0,,294
2012-2-9,77,62,47,49,45,40,80,56,31,30.26,30.22,30.16,10,10,10,14,3,30,0.00,0,,232
2012-2-10,65,55,44,54,49,39,86,65,44,30.24,30.17,30.12,10,8,2,37,3,70,0.05,6,Rain,253
2012-2-11,63,56,48,49,48,45,86,75,64,30.11,30.07,30.02,10,10,8,10,2,22,T,6,Rain,241
2012-2-12,59,54,49,47,45,43,83,73,62,30.11,30.06,30.03,10,10,10,12,3,23,0.07,7,Rain,169
2012-2-13,57,50,43,50,43,38,86,79,71,30.04,30.00,29.92,10,8,2,17,5,83,0.25,6,Rain,256
2012-2-14,60,49,38,44,41,36,89,71,53,30.14,30.10,30.02,10,10,10,12,4,20,0.00,1,,255
2012-2-15,62,51,39,43,33,23,86,54,21,30.15,30.09,30.06,10,9,2,14,4,23,0.06,2,Rain,313
2012-2-16,65,51,37,37,32,29,76,53,29,30.26,30.21,30.15,10,10,10,10,4,13,0.00,0,,270
2012-2-17,63,52,40,48,42,32,83,66,49,30.30,30.25,30.19,10,10,8,3,3,5,0.00,3,,201
2012-2-18,62,53,43,49,45,36,89,68,46,30.25,30.19,30.10,10,7,2,22,2,,0.01,6,,219
2012-2-19,59,49,39,42,38,34,82,65,47,30.18,30.14,30.09,10,10,10,13,4,21,0.00,1,,343
2012-2-20,61,53,45,47,43,40,86,70,53,30.22,30.16,30.12,10,10,10,9,2,30,0.02,4,Rain,263
2012-2-21,68,56,43,47,44,39,86,67,48,30.30,30.25,30.22,10,7,0,9,2,25,0.00,2,Fog,278
2012-2-22,74,60,46,50,46,42,86,62,38,30.27,30.19,30.10,10,10,2,10,3,16,0.00,0,,183
2012-2-23,79,62,44,48,41,18,89,50,11,30.08,30.02,29.93,10,7,0,14,5,21,0.00,1,Fog,265
2012-2-24,76,60,43,47,36,28,83,52,20,30.23,30.09,30.00,10,10,8,13,5,22,0.00,0,,305
2012-2-25,64,53,41,41,38,35,83,60,36,30.31,30.24,30.17,10,10,9,12,5,24,0.00,0,,237
2012-2-26,60,48,36,39,35,29,82,59,35,30.16,30.01,29.90,10,10,10,13,5,15,0.00,0,,283
2012-2-27,57,48,38,40,35,31,76,61,45,30.02,29.89,29.84,10,10,9,20,5,26,0.01,4,Rain,281
2012-2-28,57,46,35,39,34,30,76,60,43,30.27,30.21,30.04,10,10,8,14,4,30,T,3,Rain,267
2012-2-29,58,52,45,52,45,38,96,77,57,30.29,30.20,30.15,10,8,2,20,6,25,0.30,6,Rain,244